CW2969 Weather Reports


time (UTC)temp
C
wind
direction
speed
KPH
gust
KPH
rain 1hr
cm
rain 24hr
cm
rain mn
cm
humidity
%
barometer
mb
20260509015013 25 101 0.0 6.4 0.00 0.00 0.00 78 1007.6
20260509014514 25 154 1.6 4.8 0.00 0.00 0.00 78 1007.7
20260509013513 25 138 8.0 8.0 0.00 0.00 0.00 77 1007.7
20260509012513 25 124 3.2 3.2 0.00 0.00 0.00 77 1007.8
20260509012013 25 102 1.6 12.9 0.00 0.00 0.00 77 1007.7
20260509011513 25 172 8.0 12.9 0.00 0.00 0.00 77 1007.7
20260509011013 26 98 3.2 9.7 0.00 0.00 0.00 77 1007.7
20260509010512 26 117 0.0 3.2 0.00 0.00 0.00 77 1007.6
20260509010013 26 74 1.6 6.4 0.00 0.00 0.00 77 1007.6
20260509005512 26 121 1.6 6.4 0.00 0.00 0.00 76 1007.6
20260509005013 26 201 6.4 6.4 0.00 0.00 0.00 76 1007.5
20260509004013 26 122 1.6 9.7 0.00 0.00 0.00 76 1007.5
20260509003012 26 110 9.7 9.7 0.00 0.00 0.00 76 1007.5
20260509002512 26 130 4.8 4.8 0.00 0.00 0.00 75 1007.5
20260509002012 26 164 0.0 4.8 0.00 0.00 0.00 75 1007.6
20260509001012 26 133 0.0 3.2 0.00 0.00 0.00 75 1007.6
20260509000512 26 141 0.0 4.8 0.00 0.00 0.00 75 1007.7
20260509000012 26 109 3.2 6.4 0.00 0.00 0.00 75 1007.6
20260508235512 26 196 3.2 6.4 0.00 0.00 0.00 74 1007.5
20260508235012 26 192 3.2 4.8 0.00 0.00 0.00 74 1007.5
20260508234512 26 125 1.6 3.2 0.00 0.00 0.00 74 1007.5
20260508234012 26 172 3.2 8.0 0.00 0.00 0.00 74 1007.6
20260508233512 27 119 1.6 8.0 0.00 0.00 0.00 74 1007.5
20260508233012 27 120 3.2 8.0 0.00 0.00 0.00 74 1007.5
20260508232512 27 168 1.6 12.9 0.00 0.00 0.00 74 1007.5
20260508232011 27 254 3.2 12.9 0.00 0.00 0.00 74 1007.6
20260508231512 27 133 1.6 6.4 0.00 0.00 0.00 73 1007.6
20260508231011 27 165 6.4 9.7 0.00 0.00 0.00 73 1007.7
20260508230512 27 176 4.8 9.7 0.00 0.00 0.00 73 1007.7
20260508230011 27 212 3.2 8.0 0.00 0.00 0.00 73 1007.7
20260508225511 27 205 6.4 8.0 0.00 0.00 0.00 73 1007.6
20260508225012 27 236 3.2 6.4 0.00 0.00 0.00 73 1007.6
20260508223511 27 206 1.6 6.4 0.00 0.00 0.00 72 1007.5
20260508223011 27 123 4.8 6.4 0.00 0.00 0.00 72 1007.5
20260508222511 27 217 1.6 4.8 0.00 0.00 0.00 71 1007.6
20260508222011 27 137 1.6 4.8 0.00 0.00 0.00 72 1007.6
20260508220510 27 220 1.6 12.9 0.00 0.00 0.00 72 1007.7
20260508220010 27 98 1.6 12.9 0.00 0.00 0.00 72 1007.7
20260508215010 27 90 4.8 4.8 0.00 0.00 0.00 72 1007.8
20260508214510 27 135 0.0 12.9 0.00 0.00 0.00 72 1007.9
20260508213510 27 140 0.0 3.2 0.00 0.00 0.00 72 1007.9
20260508212010 26 124 3.2 4.8 0.00 0.00 0.00 72 1008.2
20260508211510 26 105 0.0 3.2 0.00 0.00 0.00 72 1008.3
20260508211010 26 217 1.6 6.4 0.00 0.00 0.00 73 1008.4
20260508210510 26 113 0.0 6.4 0.00 0.00 0.00 72 1008.6
20260508210010 26 98 3.2 8.0 0.00 0.00 0.00 73 1008.6
20260508205510 26 84 1.6 8.0 0.00 0.00 0.00 72 1008.8
20260508205009 26 123 6.4 9.7 0.00 0.00 0.00 72 1008.7
20260508204509 26 71 4.8 9.7 0.00 0.00 0.00 72 1008.8
20260508204009 26 147 3.2 6.4 0.00 0.00 0.00 73 1008.8
20260508203509 26 111 4.8 9.7 0.00 0.00 0.00 72 1009.0
20260508203009 26 125 6.4 9.7 0.00 0.00 0.00 72 1008.9
20260508202510 26 121 8.0 8.0 0.00 0.00 0.00 72 1008.9
20260508202009 26 85 1.6 8.0 0.00 0.00 0.00 72 1009.0
20260508201509 26 107 4.8 6.4 0.00 0.00 0.00 72 1009.0
20260508201009 26 126 4.8 14.5 0.00 0.00 0.00 73 1008.8
20260508200509 26 127 6.4 14.5 0.00 0.00 0.00 72 1009.0
20260508200009 26 139 6.4 6.4 0.00 0.00 0.00 73 1009.2
20260508195509 26 219 1.6 11.3 0.00 0.00 0.00 73 1009.2
20260508195009 26 82 0.0 11.3 0.00 0.00 0.00 73 1009.3
20260508194509 26 187 4.8 6.4 0.00 0.00 0.00 73 1009.4
20260508194009 25 101 0.0 4.8 0.00 0.00 0.00 73 1009.4
20260508193009 25 5 1.6 12.9 0.00 0.00 0.00 73 1009.6
20260508192509 25 254 4.8 4.8 0.00 0.00 0.00 73 1009.6
20260508192009 25 112 0.0 3.2 0.00 0.00 0.00 73 1009.7
20260508191509 25 105 3.2 4.8 0.00 0.00 0.00 73 1009.7
20260508191008 25 112 1.6 4.8 0.00 0.00 0.00 73 1009.8
20260508190038 25 108 1.6 6.4 0.00 0.00 0.00 73 1009.8
20260508185508 25 115 1.6 3.2 0.00 0.00 0.00 73 1009.9
20260508185008 25 103 1.6 1.6 0.00 0.00 0.00 73 1010.0
20260508184508 25 55 0.0 8.0 0.00 0.00 0.00 73 1010.0
20260508184008 25 109 3.2 8.0 0.00 0.00 0.00 73 1010.1
20260508183508 25 164 3.2 9.7 0.00 0.00 0.00 74 1010.2
20260508183008 24 105 6.4 9.7 0.00 0.00 0.00 74 1010.2
20260508182508 24 115 1.6 14.5 0.00 0.00 0.00 74 1010.4
20260508182009 24 135 6.4 14.5 0.00 0.00 0.00 74 1010.5
20260508181008 24 85 0.0 9.7 0.00 0.00 0.00 74 1010.7
20260508180508 24 84 0.0 4.8 0.00 0.00 0.00 73 1010.8
20260508180038 24 108 0.0 1.6 0.00 0.00 0.00 74 1010.9
20260508175508 24 47 0.0 4.8 0.00 0.00 0.00 74 1010.9
20260508175008 23 101 1.6 4.8 0.00 0.00 0.00 74 1010.9
20260508174508 23 94 0.0 3.2 0.00 0.00 0.00 74 1011.0
20260508174008 23 103 1.6 1.6 0.00 0.00 0.00 73 1010.9
20260508173508 24 129 1.6 1.6 0.00 0.00 0.00 73 1011.1
20260508173008 24 98 0.0 6.4 0.00 0.00 0.00 73 1011.3
20260508172008 24 128 0.0 4.8 0.00 0.00 0.00 73 1011.3
20260508171508 24 75 1.6 1.6 0.00 0.00 0.00 73 1011.3
20260508171008 24 67 0.0 1.6 0.00 0.00 0.00 73 1011.2
20260508170508 24 111 0.0 4.8 0.00 0.00 0.00 73 1011.2
20260508165507 24 128 3.2 4.8 0.00 0.00 0.00 72 1011.4
20260508165008 24 111 0.0 8.0 0.00 0.00 0.00 73 1011.3
20260508164507 24 347 4.8 8.0 0.00 0.00 0.00 73 1011.3
20260508164007 23 67 0.0 4.8 0.00 0.00 0.00 73 1011.3
20260508163007 23 131 1.6 4.8 0.00 0.00 0.00 74 1011.3
20260508162507 22 138 1.6 4.8 0.00 0.00 0.00 75 1011.4
20260508162007 22 109 1.6 3.2 0.00 0.00 0.00 76 1011.6
20260508161507 22 139 0.0 1.6 0.00 0.00 0.00 75 1011.7
20260508160507 22 90 0.0 0.0 0.00 0.00 0.00 76 1012.0
20260508160007 22 90 0.0 1.6 0.00 0.00 0.00 76 1012.1
20260508155507 21 90 0.0 1.6 0.00 0.00 0.00 76 1012.0
20260508155007 21 90 0.0 3.2 0.00 0.00 0.00 76 1011.9
20260508154507 21 327 3.2 3.2 0.00 0.00 0.00 77 1011.9
20260508153507 21 153 0.0 1.6 0.00 0.00 0.00 77 1012.3
20260508153007 20 118 0.0 6.4 0.00 0.00 0.00 77 1012.2
20260508152507 20 123 6.4 6.4 0.00 0.00 0.00 77 1012.2
20260508152007 20 319 3.2 4.8 0.00 0.00 0.00 77 1012.3
20260508151006 20 150 1.6 3.2 0.00 0.00 0.00 78 1012.4
20260508150506 20 146 0.0 3.2 0.00 0.00 0.00 78 1012.5
20260508150007 19 111 0.0 3.2 0.00 0.00 0.00 78 1012.5
20260508145506 19 111 1.6 3.2 0.00 0.00 0.00 78 1012.5
20260508145006 19 104 0.0 1.6 0.00 0.00 0.00 78 1012.4
20260508144506 19 104 0.0 3.2 0.00 0.00 0.00 78 1012.4
20260508144007 19 104 1.6 3.2 0.00 0.00 0.00 78 1012.5
20260508143507 18 88 0.0 4.8 0.00 0.00 0.00 78 1012.5
20260508143006 18 323 3.2 4.8 0.00 0.00 0.00 78 1012.4
20260508142506 18 67 1.6 4.8 0.00 0.00 0.00 78 1012.2
20260508142006 18 96 0.0 4.8 0.00 0.00 0.00 78 1012.3
20260508141506 18 143 4.8 4.8 0.00 0.00 0.00 78 1012.5
20260508141006 18 111 1.6 4.8 0.00 0.00 0.00 78 1012.6
20260508140506 18 111 1.6 6.4 0.00 0.00 0.00 78 1012.6
20260508140006 18 111 6.4 6.4 0.00 0.00 0.00 78 1012.7
20260508135506 18 94 0.0 3.2 0.00 0.00 0.00 77 1012.7
20260508135006 18 42 3.2 3.2 0.00 0.00 0.00 77 1012.7
20260508134506 18 190 1.6 3.2 0.00 0.00 0.00 77 1012.7
20260508134006 18 88 0.0 3.2 0.00 0.00 0.00 77 1012.7
20260508133506 18 101 0.0 1.6 0.00 0.00 0.00 77 1012.9
20260508133006 18 101 0.0 1.6 0.00 0.00 0.00 77 1013.0
20260508132506 18 101 0.0 1.6 0.00 0.00 0.00 77 1013.0
20260508132006 18 101 0.0 3.2 0.00 0.00 0.00 77 1013.0
20260508131536 18 96 0.0 3.2 0.00 0.00 0.00 77 1012.8
20260508130535 18 98 1.6 3.2 0.00 0.00 0.00 77 1012.6
20260508130036 18 85 1.6 3.2 0.00 0.00 0.00 77 1012.7
20260508125535 18 76 0.0 3.2 0.00 0.00 0.00 77 1012.7
20260508125035 18 45 0.0 1.6 0.00 0.00 0.00 77 1012.7
20260508124535 18 223 0.0 4.8 0.00 0.00 0.00 77 1012.8
20260508124035 18 278 0.0 4.8 0.00 0.00 0.00 77 1012.6
20260508123535 18 5 3.2 4.8 0.00 0.00 0.00 77 1012.6
20260508123035 18 87 0.0 3.2 0.00 0.00 0.00 77 1012.6
20260508122535 18 27 0.0 6.4 0.00 0.00 0.00 77 1012.6
20260508122034 18 351 1.6 6.4 0.00 0.00 0.00 77 1012.6
20260508121535 18 59 0.0 1.6 0.00 0.00 0.00 77 1012.8
20260508121035 18 77 0.0 3.2 0.00 0.00 0.00 76 1012.9
20260508120034 18 74 0.0 1.6 0.00 0.00 0.00 76 1013.1
20260508115534 18 74 0.0 1.6 0.00 0.00 0.00 76 1013.3
20260508114534 18 70 0.0 1.6 0.00 0.00 0.00 76 1013.2
20260508114034 18 70 0.0 0.0 0.00 0.00 0.00 76 1013.4
20260508113533 18 70 0.0 0.0 0.00 0.00 0.00 76 1013.4
20260508113034 18 70 0.0 1.6 0.00 0.00 0.00 76 1013.4
20260508112534 18 70 0.0 1.6 0.00 0.00 0.00 76 1013.4
20260508112033 18 70 0.0 0.0 0.00 0.00 0.00 76 1013.4
20260508111533 18 70 0.0 0.0 0.00 0.00 0.00 76 1013.4
20260508111033 18 9 0.0 4.8 0.00 0.00 0.00 76 1013.2
20260508110533 18 342 1.6 4.8 0.00 0.00 0.00 76 1013.2
20260508110033 18 339 0.0 3.2 0.00 0.00 0.00 76 1013.2
20260508105533 18 36 1.6 3.2 0.00 0.00 0.00 76 1013.0
20260508105033 18 46 1.6 3.2 0.00 0.00 0.00 76 1013.1
20260508103533 18 76 0.0 1.6 0.00 0.00 0.00 76 1013.3
20260508102533 18 360 1.6 4.8 0.00 0.00 0.00 76 1013.0
20260508102033 17 47 0.0 3.2 0.00 0.00 0.00 76 1013.1
20260508101532 17 64 0.0 1.6 0.00 0.00 0.00 76 1012.9
20260508101032 17 22 1.6 1.6 0.00 0.00 0.00 75 1012.9
20260508100533 17 50 1.6 4.8 0.00 0.00 0.00 76 1013.1
20260508095532 17 13 3.2 3.2 0.00 0.00 0.00 76 1013.1
20260508095033 17 50 1.6 3.2 0.00 0.00 0.00 76 1013.1
20260508094533 17 69 0.0 1.6 0.00 0.00 0.00 76 1013.1
20260508094032 17 53 1.6 4.8 0.00 0.00 0.00 75 1013.3
20260508093032 17 355 3.2 4.8 0.00 0.00 0.00 75 1013.5
20260508092032 17 74 1.6 3.2 0.00 0.00 0.00 75 1013.4
20260508091532 17 11 0.0 4.8 0.00 0.00 0.00 75 1013.3
20260508091032 17 360 1.6 4.8 0.00 0.00 0.00 75 1013.1
20260508090532 17 78 0.0 1.6 0.00 0.00 0.00 75 1013.0
20260508090032 17 57 0.0 3.2 0.00 0.00 0.00 75 1013.0
20260508085532 17 13 0.0 3.2 0.00 0.00 0.00 75 1012.9
20260508085032 17 86 0.0 1.6 0.00 0.00 0.00 75 1013.0
20260508084532 17 5 1.6 1.6 0.00 0.00 0.00 75 1013.1
20260508084032 17 355 0.0 4.8 0.00 0.00 0.00 75 1013.2
20260508083532 17 19 0.0 4.8 0.00 0.00 0.00 75 1013.2
20260508083032 17 34 1.6 3.2 0.00 0.00 0.00 75 1013.3
20260508082532 17 80 0.0 3.2 0.00 0.00 0.00 75 1013.4
20260508082032 17 80 0.0 1.6 0.00 0.00 0.00 75 1013.3
20260508081032 17 78 0.0 1.6 0.00 0.00 0.00 75 1013.1
20260508080532 17 90 0.0 0.0 0.00 0.00 0.00 75 1013.4
20260508080032 17 90 0.0 1.6 0.00 0.00 0.00 75 1013.4
20260508075531 17 90 0.0 3.2 0.00 0.00 0.00 75 1013.2
20260508075031 17 44 3.2 4.8 0.00 0.00 0.00 74 1013.1
20260508074531 17 17 0.0 4.8 0.00 0.00 0.00 74 1013.1
20260508074032 17 5 0.0 3.2 0.00 0.00 0.00 75 1013.1
20260508073531 17 5 0.0 3.2 0.00 0.00 0.00 74 1013.2
20260508072031 17 96 0.0 6.4 0.00 0.00 0.00 74 1012.9
20260508071531 18 13 4.8 6.4 0.00 0.00 0.00 74 1013.1
20260508071032 18 68 0.0 4.8 0.00 0.00 0.00 74 1013.3
20260508070532 18 72 1.6 3.2 0.00 0.00 0.00 74 1013.2
20260508070032 18 95 1.6 3.2 0.00 0.00 0.00 74 1013.2
20260508065031 18 113 0.0 3.2 0.00 0.00 0.00 74 1013.6
20260508064531 18 84 1.6 3.2 0.00 0.00 0.00 74 1013.7
20260508064031 18 96 0.0 4.8 0.00 0.00 0.00 74 1013.9
20260508063031 18 355 1.6 4.8 0.00 0.00 0.00 74 1014.0
20260508061531 18 102 0.0 0.0 0.00 0.00 0.00 74 1014.1
20260508060531 17 102 0.0 0.0 0.00 0.00 0.00 74 1014.2
20260508060031 17 91 0.0 1.6 0.00 0.00 0.00 74 1013.9
20260508055531 17 110 0.0 1.6 0.00 0.00 0.00 74 1013.8
20260508055031 17 38 0.0 1.6 0.00 0.00 0.00 74 1014.0
20260508054531 17 93 1.6 3.2 0.00 0.00 0.00 74 1014.3
20260508054031 17 329 1.6 6.4 0.00 0.00 0.00 74 1014.3
20260508053530 17 360 3.2 6.4 0.00 0.00 0.00 74 1014.3
20260508053030 17 9 0.0 3.2 0.00 0.00 0.00 74 1014.1
20260508052530 17 27 1.6 3.2 0.00 0.00 0.00 74 1013.7
20260508052030 17 342 1.6 6.4 0.00 0.00 0.00 74 1014.1
20260508051530 17 78 3.2 6.4 0.00 0.00 0.00 73 1013.5
20260508051030 17 46 1.6 6.4 0.00 0.00 0.00 74 1013.5
20260508050530 17 103 4.8 4.8 0.00 0.00 0.00 74 1014.1
20260508050030 17 313 0.0 4.8 0.00 0.00 0.00 74 1014.3
20260508045530 17 34 0.0 6.4 0.00 0.00 0.00 74 1014.2
20260508045030 17 19 1.6 6.4 0.00 0.00 0.00 74 1014.5
20260508044530 17 94 3.2 4.8 0.00 0.00 0.00 74 1013.7
20260508044030 17 107 3.2 4.8 0.00 0.00 0.00 74 1013.2
20260508043530 17 56 0.0 1.6 0.00 0.00 0.00 74 1013.6
20260508043030 17 93 0.0 1.6 0.00 0.00 0.00 74 1013.5
20260508042529 17 109 0.0 1.6 0.00 0.00 0.00 74 1013.6
20260508042030 17 77 0.0 1.6 0.00 0.00 0.00 73 1013.8
20260508041529 18 77 1.6 1.6 0.00 0.00 0.00 73 1013.7
20260508041029 18 52 0.0 1.6 0.00 0.00 0.00 73 1014.1
20260508040529 18 71 0.0 1.6 0.00 0.00 0.00 73 1014.2
20260508040029 18 360 0.0 1.6 0.00 0.00 0.00 73 1014.4
20260508035529 18 72 0.0 1.6 0.00 0.00 0.00 73 1014.3
20260508035029 17 70 0.0 1.6 0.00 0.00 0.00 74 1014.3
20260508034530 17 65 0.0 1.6 0.00 0.00 0.00 74 1014.5
20260508034029 17 20 0.0 1.6 0.00 0.00 0.00 73 1014.7
20260508033529 17 338 0.0 3.2 0.00 0.00 0.00 74 1014.8
20260508033029 17 338 0.0 3.2 0.00 0.00 0.00 73 1014.7
20260508032029 17 342 1.6 8.0 0.00 0.00 0.00 73 1014.8
20260508031529 17 153 1.6 8.0 0.00 0.00 0.00 73 1014.9
20260508031029 17 330 3.2 4.8 0.00 0.00 0.00 73 1014.7
20260508030529 17 56 0.0 0.0 0.00 0.00 0.00 73 1014.4
20260508030030 18 56 0.0 3.2 0.00 0.00 0.00 73 1014.0
20260508025029 18 24 0.0 1.6 0.00 0.00 0.00 72 1014.0
20260508024529 18 24 0.0 3.2 0.00 0.00 0.00 72 1014.1
20260508024028 18 111 3.2 3.2 0.00 0.00 0.00 72 1013.9
20260508023529 18 111 1.6 3.2 0.00 0.00 0.00 72 1013.3
20260508022528 18 101 1.6 3.2 0.00 0.00 0.00 72 1012.9
20260508022029 18 74 1.6 3.2 0.00 0.00 0.00 72 1012.9
20260508021528 18 345 1.6 3.2 0.00 0.00 0.00 71 1012.9
20260508020028 18 131 0.0 3.2 0.00 0.00 0.00 70 1012.5
20260508015527 18 90 1.6 4.8 0.00 0.00 0.00 70 1012.4